Time,TemperatureF,DewpointF,PressureIn,WindDirection,WindDirectionDegrees,WindSpeedMPH,WindSpeedGustMPH,Humidity,HourlyPrecipIn,Conditions,Clouds,dailyrainin,SolarRadiationWatts/m^2,SoftwareType,DateUTC
2013-06-15 00:23:00,51.0,22.0,-100.00,ENE,76,2.0,6.0,32,-99.99,,,-99.99,0.000000,,2013-06-15 07:23:00,
2013-06-15 00:30:00,52.0,22.0,-100.00,East,94,5.0,8.0,30,-99.99,,,-99.99,0.000000,,2013-06-15 07:30:00,
2013-06-15 01:22:00,52.0,22.0,-100.00,East,94,5.0,8.0,30,-99.99,,,-99.99,0.000000,,2013-06-15 08:22:00,
2013-06-15 01:30:00,52.0,21.0,-100.00,ESE,104,5.0,9.0,29,-99.99,,,-99.99,0.000000,,2013-06-15 08:30:00,
2013-06-15 02:30:00,50.0,21.0,-100.00,ESE,106,5.0,8.0,31,-99.99,,,-99.99,0.000000,,2013-06-15 09:30:00,
2013-06-15 03:30:00,50.0,20.0,-100.00,ESE,110,5.0,7.0,30,-99.99,,,-99.99,0.000000,,2013-06-15 10:30:00,
2013-06-15 04:22:00,50.0,20.0,-100.00,ESE,110,5.0,7.0,30,-99.99,,,-99.99,0.000000,,2013-06-15 11:22:00,
2013-06-15 04:30:00,50.0,18.0,-100.00,SSE,147,4.0,8.0,28,-99.99,,,-99.99,0.000000,,2013-06-15 11:30:00,
2013-06-15 05:22:00,50.0,18.0,-100.00,SSE,147,4.0,8.0,28,-99.99,,,-99.99,0.000000,,2013-06-15 12:22:00,
2013-06-15 05:30:00,49.0,19.0,-100.00,SSE,149,1.0,6.0,30,-99.99,,,-99.99,1.000000,,2013-06-15 12:30:00,
2013-06-15 06:22:00,49.0,19.0,-100.00,SSE,149,1.0,6.0,30,-99.99,,,-99.99,1.000000,,2013-06-15 13:22:00,
2013-06-15 06:30:00,50.0,20.0,-100.00,ESE,112,3.0,6.0,31,-99.99,,,-99.99,28.000000,,2013-06-15 13:30:00,
2013-06-15 07:22:00,50.0,20.0,-100.00,ESE,112,3.0,6.0,31,-99.99,,,-99.99,28.000000,,2013-06-15 14:22:00,
2013-06-15 08:30:00,55.0,20.0,-100.00,SE,143,5.0,11.0,26,-99.99,,,-99.99,379.000000,,2013-06-15 15:30:00,
2013-06-15 09:30:00,56.0,20.0,-100.00,SSE,160,7.0,11.0,25,-99.99,,,-99.99,532.000000,,2013-06-15 16:30:00,
2013-06-15 10:30:00,58.0,20.0,-100.00,SSW,207,4.0,10.0,23,-99.99,,,-99.99,656.000000,,2013-06-15 17:30:00,
2013-06-15 11:30:00,59.0,22.0,-100.00,SW,218,4.0,7.0,24,-99.99,,,-99.99,738.000000,,2013-06-15 18:30:00,
2013-06-15 12:22:00,59.0,22.0,-100.00,SW,218,4.0,7.0,24,-99.99,,,-99.99,738.000000,,2013-06-15 19:22:00,
2013-06-15 12:30:00,60.0,24.0,-100.00,SW,229,3.0,10.0,25,-99.99,,,-99.99,782.000000,,2013-06-15 19:30:00,
2013-06-15 13:22:00,60.0,24.0,-100.00,SW,229,3.0,10.0,25,-99.99,,,-99.99,782.000000,,2013-06-15 20:22:00,
2013-06-15 13:30:00,60.0,25.0,-100.00,SW,236,4.0,9.0,26,-99.99,,,-99.99,778.000000,,2013-06-15 20:30:00,
2013-06-15 14:22:00,60.0,25.0,-100.00,SW,236,4.0,9.0,26,-99.99,,,-99.99,778.000000,,2013-06-15 21:22:00,
2013-06-15 20:30:00,50.0,30.0,-100.00,NW,319,1.0,2.0,46,-99.99,,,-99.99,3.000000,,2013-06-16 03:30:00,
2013-06-15 21:23:00,50.0,30.0,-100.00,NW,319,1.0,2.0,46,-99.99,,,-99.99,3.000000,,2013-06-16 04:23:00,
2013-06-15 21:30:00,48.0,29.0,-100.00,NW,326,2.0,3.0,47,-99.99,,,-99.99,0.000000,,2013-06-16 04:30:00,
2013-06-15 22:22:00,48.0,29.0,-100.00,NW,326,2.0,3.0,47,-99.99,,,-99.99,0.000000,,2013-06-16 05:22:00,
2013-06-15 22:30:00,48.0,29.0,-100.00,NNW,331,1.0,2.0,48,-99.99,,,-99.99,0.000000,,2013-06-16 05:30:00,
2013-06-15 23:22:00,48.0,29.0,-100.00,NNW,331,1.0,2.0,48,-99.99,,,-99.99,0.000000,,2013-06-16 06:22:00,
2013-06-15 23:30:00,49.0,28.0,-100.00,East,99,1.0,3.0,44,-99.99,,,-99.99,0.000000,,2013-06-16 06:30:00,